Weather History for Dayton Wright, OH

Change the Weather History Date:

Thursday, April 24, 2014

  Actual Average (KFFO) Record (KFFO)
Temperature  
Mean Temperature 54 °F -  
Max Temperature 64 °F 63 °F 78 °F (2008)
Min Temperature 45 °F 41 °F 32 °F (2005)
Degree Days  
Heating Degree Days 10    
Growing Degree Days 4 (Base 50)    
Moisture  
Dew Point 26 °F    
Average Humidity 37    
Maximum Humidity 61    
Minimum Humidity 23    
Precipitation  
Precipitation 0.00 in - - ()
Sea Level Pressure  
Sea Level Pressure 30.00 in    
Wind  
Wind Speed 10 mph (ESE)    
Max Wind Speed 17 mph    
Max Gust Speed 22 mph    
Visibility 10 miles    
Events      
Averages and records for this station are not official NWS values.
T = Trace of Precipitation, MM = Missing Value Source: NWS Daily Summary

Daily Weather History Graph

Daily Weather History Graph

Search for Another Location

Airport:

Trip Planner

Search our weather history database for the weather conditions in past years. The results will help you decide how hot, cold, wet, or windy it might be!

Date:

Astronomy

Apr. 24, 2014 Rise Set
Actual Time 6:46 AM EDT 8:23 PM EDT
Civil Twilight 6:18 AM EDT 8:52 PM EDT
Nautical Twilight 5:43 AM EDT 9:26 PM EDT
Astronomical Twilight 5:07 AM EDT 10:03 PM EDT
Moon 3:56 AM EDT (4/24) 3:39 PM EDT (4/24)
Length of Visible Light 14h 34m
Length of Day
13h 37m
Waning Crescent, 24% of the Moon is Illuminated
Apr 24
Waning Crescent
Apr 29
New
May 6
First Quarter
May 14
Full
May 21
Last Quarter

Hourly Weather History & Observations

Time (EDT) Temp. Windchill Dew Point Humidity Pressure Visibility Wind Dir Wind Speed Gust Speed Precip Events Conditions
12:53 AM 46.9 °F - 34.0 °F 61% 30.09 in 10.0 mi ENE 6.9 mph - N/A   Clear
1:53 AM 46.9 °F - 34.0 °F 61% 30.09 in 10.0 mi East 9.2 mph - N/A   Clear
2:53 AM 46.9 °F - 33.1 °F 59% 30.06 in 10.0 mi East 9.2 mph - N/A   Overcast
3:53 AM 46.9 °F - 32.0 °F 56% 30.07 in 10.0 mi East 8.1 mph - N/A   Overcast
4:53 AM 46.0 °F 41.4 °F 28.9 °F 51% 30.06 in 10.0 mi East 9.2 mph - N/A   Mostly Cloudy
5:53 AM 45.0 °F 40.1 °F 28.9 °F 53% 30.09 in 10.0 mi East 9.2 mph - N/A   Mostly Cloudy
6:53 AM 45.0 °F 40.6 °F 28.0 °F 52% 30.10 in 10.0 mi East 8.1 mph - N/A   Overcast
7:53 AM 46.0 °F 41.9 °F 28.9 °F 51% 30.13 in 10.0 mi ESE 8.1 mph - N/A   Overcast
8:53 AM 46.9 °F - 27.0 °F 46% 30.12 in 10.0 mi ESE 13.8 mph - N/A   Clear
9:53 AM 48.9 °F - 24.1 °F 38% 30.12 in 10.0 mi ESE 12.7 mph 18.4 mph N/A   Mostly Cloudy
10:53 AM 51.1 °F - 19.9 °F 29% 30.10 in 10.0 mi ESE 17.3 mph - N/A   Clear
11:53 AM 55.0 °F - 21.0 °F 27% 30.08 in 10.0 mi ESE 15.0 mph 21.9 mph N/A   Partly Cloudy
12:53 PM 57.0 °F - 21.0 °F 25% 30.05 in 10.0 mi East 11.5 mph - N/A   Clear
1:53 PM 57.9 °F - 21.9 °F 25% 30.01 in 10.0 mi SE 11.5 mph - N/A   Clear
2:53 PM 61.0 °F - 25.0 °F 25% 29.99 in 10.0 mi ESE 11.5 mph - N/A   Clear
3:53 PM 62.1 °F - 24.1 °F 23% 29.96 in 10.0 mi SE 10.4 mph - N/A   Clear
4:53 PM 63.0 °F - 25.0 °F 24% 29.93 in 10.0 mi SE 9.2 mph - N/A   Partly Cloudy
5:53 PM 64.0 °F - 25.0 °F 23% 29.91 in 10.0 mi SE 9.2 mph - N/A   Clear
6:53 PM 63.0 °F - 24.1 °F 23% 29.87 in 10.0 mi ESE 11.5 mph - N/A   Clear
7:53 PM 61.0 °F - 25.0 °F 25% 29.85 in 10.0 mi ESE 8.1 mph - N/A   Clear
8:53 PM 59.0 °F - 24.1 °F 26% 29.84 in 10.0 mi East 5.8 mph - N/A   Clear
9:53 PM 57.0 °F - 24.1 °F 28% 29.83 in 10.0 mi East 8.1 mph - N/A   Clear
10:53 PM 57.9 °F - 25.0 °F 28% 29.81 in 10.0 mi East 11.5 mph - N/A   Clear
11:53 PM 55.9 °F - 25.0 °F 30% 29.78 in 10.0 mi East 10.4 mph - N/A   Partly Cloudy